Weather observations for the past three days for
Camp Springs / Andrews Air Force Base
Imperial (Metric)
Date Time (edt) Wind (mph) Vis. (mi.) Weather Sky Cond. Temperature (ºF) Relative Humidity Wind Chill (°F) Heat Index (°F) Pressure Precipitation (in)
Air Dwpt 6 hour altimeter (in) sea level (mb) 1 hr 3 hr 6 hr
Max. Min.
18 16:55 SE 12 10.00 Mostly Cloudy BKN047 88.5 66.2 48% 91 30.19 1022.8
18 15:55 S 9 10.00 Partly Cloudy SCT047 88.2 65.8 48% 90 30.21 1023.4
18 14:55 S 10 G 25 10.00 A Few Clouds FEW045 89.8 66.2 46% 92 30.21 1023.4
18 13:55 SE 10 10.00 Partly Cloudy SCT043 SCT050 88.7 66.4 91 75.4 48% 91 30.22 1023.8
18 12:55 SW 9 10.00 Partly Cloudy SCT047 90.1 66.6 46% 93 30.22 1023.8
18 11:55 SW 7 10.00 Fair CLR 87.6 66 49% 90 30.23 1024.1
18 10:55 S 7 10.00 Fair CLR 84.7 65.7 53% 87 30.23 1024.1
18 09:55 S 6 10.00 Fair CLR 82.2 64.9 56% 84 30.23 1024.1
18 08:55 SW 12 10.00 Fair CLR 80.2 64 58% 82 30.23 1024.1
18 07:55 S 10 10.00 Fair CLR 75.2 63.9 75.2 68 68% 77 30.23 1024.1
18 05:55 S 7 10.00 Fair CLR 68 62.6 83% 30.19 1022.8
18 04:55 S 7 10.00 Partly Cloudy SCT049 69.3 62.8 80% 30.18 1022.4
18 03:55 SW 7 10.00 Overcast BKN046 OVC055 71.8 63.9 76% 30.17 1022.1
18 02:55 S 9 10.00 Fair CLR 70 63.5 80% 30.17 1022.1
18 01:55 S 6 10.00 Fair CLR 71.6 63.1 84.7 71.4 75% 30.16 1021.7
18 00:55 S 7 10.00 Fair CLR 72.7 62.8 71% 30.16 1021.7
17 23:55 S 8 10.00 Fair CLR 73.8 63 69% 30.15 1021.4
17 22:55 S 8 10.00 Fair CLR 75.2 63.5 67% 77 30.14 1021.1
17 21:55 S 10 10.00 Fair CLR 77 66 69% 79 30.14 1021.1
17 20:55 S 9 10.00 Fair CLR 80.1 68.5 68% 83 30.12 1020.4
17 19:55 S 8 10.00 Mostly Cloudy BKN046 84.9 68.4 90.7 84.7 58% 88 30.12 1020.4
17 18:55 S 14 10.00 A Few Clouds FEW046 87.3 66.9 51% 90 30.09 1019.4
17 17:55 SE 12 10.00 Fair CLR 87.6 67.1 51% 91 30.08 1019.1
17 16:55 S 12 G 18 10.00 Fair CLR 88.2 66.6 49% 91 30.09 1019.4
17 15:55 S 13 10.00 A Few Clouds FEW042 FEW180 88.9 67.8 50% 93 30.11 1020.1
17 14:55 S 10 10.00 A Few Clouds FEW140 FEW210 87.8 67.3 51% 91 30.12 1020.4
17 13:55 S 9 10.00 Partly Cloudy FEW038 FEW120 SCT150 SCT170 SCT190 88 67.5 88.9 73.8 51% 91 30.13 1020.7
17 12:55 SW 12 10.00 Partly Cloudy FEW140 SCT160 SCT200 87.1 66.2 50% 90 30.14 1021.1
17 11:55 S 15 G 22 10.00 A Few Clouds FEW200 84.7 65.7 53% 87 30.15 1021.4
17 10:55 SW 9 10.00 Fair CLR 83.7 65.1 54% 85 30.16 1021.8
17 09:55 SW 12 10.00 Fair CLR 80.8 63.5 56% 82 30.18 1022.5
17 08:55 S 13 10.00 Fair CLR 77.7 64 63% 79 30.18 1022.5
17 07:55 S 9 10.00 Fair CLR 73.6 61.9 73.8 64 67% 30.18 1022.5
17 06:55 S 6 10.00 Fair CLR 68.5 60.3 75% 30.17 1022.1
17 05:55 S 5 10.00 Fair CLR 65.5 58.1 77% 30.17 1022.1
17 04:55 S 7 10.00 Fair CLR 66.2 58.1 75% 30.16 1021.8
17 03:55 S 6 10.00 A Few Clouds FEW070 67.6 58.3 72% 30.16 1021.8
17 02:55 S 7 10.00 Fair CLR 68 57.7 70% 30.16 1021.8
17 01:55 S 9 10.00 Fair CLR 70.3 57.2 79.2 70.3 63% 30.16 1021.8
17 00:55 S 9 10.00 Mostly Cloudy BKN080 72.7 57 58% 30.16 1021.8
16 23:55 S 10 10.00 Overcast OVC065 73.6 61 65% 30.16 1021.8
16 22:55 S 9 10.00 Partly Cloudy SCT065 73.6 61.9 67% 30.14 1021.1
16 21:55 S 10 10.00 A Few Clouds FEW070 73.8 58.5 59% 30.14 1021.1
16 20:55 SE 8 10.00 Fair CLR 74.8 56.5 53% 30.13 1020.8
16 19:55 SE 10 10.00 A Few Clouds FEW060 79 56.5 86.5 78.8 46% 80 30.12 1020.4
16 18:55 SE 13 10.00 A Few Clouds FEW065 81.9 57.7 44% 82 30.12 1020.5
16 17:55 SE 13 10.00 A Few Clouds FEW065 83.7 58.1 42% 83 30.12 1020.5
16 16:55 SE 12 10.00 Fair CLR 84.7 57.7 40% 84 30.13 1020.8
16 15:55 SE 6 10.00 A Few Clouds FEW190 85.3 55.9 37% 84 30.15 1021.5
16 14:55 SE 13 10.00 A Few Clouds FEW160 85.6 56.3 37% 84 30.16 1021.8
16 13:55 SE 8 10.00 Partly Cloudy FEW160 FEW190 SCT210 85.3 55.2 85.3 71.2 36% 84 30.17 1022.2
16 12:55 SE 10 10.00 Partly Cloudy FEW160 SCT200 83.8 54.7 37% 83 30.18 1022.5
16 11:55 SE 8 10.00 A Few Clouds FEW120 FEW160 FEW190 81.9 52.3 36% 81 30.19 1022.8
16 10:55 Calm 10.00 Fair CLR 79.7 57.6 47% 80 30.2 1023.1
16 09:55 Calm 10.00 Fair CLR 77.5 57.9 51% 79 30.19 1022.8
16 08:55 NE 5 10.00 Fair CLR 74.3 59 59% 30.19 1022.8
16 07:55 NE 3 10.00 Fair CLR 71.1 55.9 71.1 56.8 59% 30.18 1022.5
16 06:55 Calm 10.00 Fair CLR 64.8 56.7 75% 30.16 1021.8
16 05:55 Calm 10.00 Fair CLR 59.2 54.3 84% 30.14 1021.2
16 04:55 Calm 10.00 Fair CLR 61.2 55.6 82% 30.13 1020.8
16 03:55 Calm 10.00 Fair CLR 60.8 54.5 80% 30.12 1020.5
16 02:55 Calm 10.00 Fair CLR 60.4 54.9 82% 30.11 1020.1
16 01:55 Calm 10.00 Fair CLR 62.2 55.2 78.6 61.7 78% 30.11 1020.1
16 00:55 Calm 10.00 Fair CLR 63.7 55.9 76% 30.11 1020.1
15 23:55 Calm 10.00 Fair CLR 64.8 55.9 73% 30.1 1019.8
15 22:55 Calm 10.00 Fair CLR 71.1 55 57% 30.08 1019.1
15 21:55 Calm 10.00 Fair CLR 71.6 55 56% 30.08 1019.1
15 20:55 SE 5 10.00 Fair CLR 74.7 54.1 49% 30.06 1018.4
15 19:55 NE 3 10.00 Fair CLR 78.4 50.7 84.9 78.4 38% 79 30.04 1017.7
15 18:55 N 12 10.00 Fair CLR 82 48.4 31% 81 30.03 1017.4
15 17:55 NE 6 10.00 A Few Clouds FEW070 83.3 49.5 31% 82 30.02 1017.0
Date Time (edt) Wind (mph) Vis. (mi.) Weather Sky Cond. Air Dwpt Max. Min. Relative Humidity Wind Chill (°F) Heat Index (°F) altimeter (in) sea level (mb) 1 hr 3 hr 6 hr
6 hour
Temperature (ºF) Pressure Precipitation (in)